Location: Bernay
(48.6766°N, 2.9386°E)
Time: 22:00:16
(UTC+00:00)

USA 238 DEB - Pass Details

Date: 12 January 2026
Orbit: 883 x 1328 km, 63.4° (Epoch: 10 January)

Event Time Altitude Azimuth Distance (km) Brightness Sun altitude
Rises 18:37:21 0° 317° (NW) 3,956 7.2 -22.6°
Reaches altitude 10° 18:39:56 10° 316° (NW) 3,055 6.5 -23.0°
Maximum altitude 18:47:18 71° 235° (SW) 1,300 4.2 -24.2°
Drops below altitude 10° 18:55:18 10° 153° (SSE) 3,309 6.0 -25.5°
Enters shadow 18:56:31 - 152° (SSE) 3,721 6.3 -25.7°
